Weather History for McComb, MS

Change the Weather History Date:

Friday, March 30, 2012

  Actual Average Record
Temperature  
Mean Temperature 70 °F -  
Max Temperature 78 °F 71 °F 85 °F (1974)
Min Temperature 63 °F 50 °F 33 °F (1950)
Cooling Degree Days 5    
Growing Degree Days 20 (Base 50)    
Moisture  
Dew Point 65 °F    
Average Humidity 90    
Maximum Humidity 100    
Minimum Humidity 64    
Precipitation  
Precipitation 0.20 in - - ()
Sea Level Pressure  
Sea Level Pressure 29.90 in    
Wind  
Wind Speed 1 mph (SSW)    
Max Wind Speed 12 mph    
Max Gust Speed -    
Visibility 7 miles    
Events Fog , Rain , Thunderstorm    
Averages and records for this station are not official NWS values.
T = Trace of Precipitation, MM = Missing Value Source: NWS Daily Summary

Daily Weather History Graph

Daily Weather History Graph

Search for Another Location

Airport:

Trip Planner

Search our weather history database for the weather conditions in past years. The results will help you decide how hot, cold, wet, or windy it might be!

Date:

Astronomy

Mar. 30, 2012 Rise Set
Actual Time 6:52 AM CDT 7:20 PM CDT
Civil Twilight 6:28 AM CDT 7:44 PM CDT
Nautical Twilight 5:59 AM CDT 8:13 PM CDT
Astronomical Twilight 5:30 AM CDT 8:42 PM CDT
Moon 12:15 PM CDT (3/30) 1:39 AM CDT (3/30)
Length of Visible Light 13h 16m
Length of Day
12h 27m
Waxing Crescent, 49% of the Moon is Illuminated
Mar 30
Waxing Crescent
Mar 30
First Quarter
Apr 6
Full
Apr 13
Last Quarter
Apr 21
New

Hourly Weather History & Observations

Time (CDT) Temp. Dew Point Humidity Pressure Visibility Wind Dir Wind Speed Gust Speed Precip Events Conditions
12:53 AM 66.0 °F 64.9 °F 96% 29.91 in 8.0 mi Calm Calm - 0.01 in   Overcast
1:53 AM 64.9 °F 64.9 °F 100% 29.90 in 6.0 mi Calm Calm - 0.02 in   Partly Cloudy
2:42 AM 64.4 °F 64.4 °F 100% 29.91 in 2.5 mi Calm Calm - N/A   Mostly Cloudy
2:50 AM 64.4 °F 64.4 °F 100% 29.91 in 1.5 mi Calm Calm - N/A   Mostly Cloudy
2:53 AM 64.0 °F 64.0 °F 100% 29.90 in 2.5 mi Calm Calm - N/A   Mostly Cloudy
3:04 AM 64.4 °F 64.4 °F 100% 29.91 in 1.0 mi Calm Calm - N/A   Overcast
3:22 AM 64.4 °F 64.4 °F 100% 29.91 in 3.0 mi Calm Calm - N/A   Overcast
3:34 AM 64.4 °F 64.4 °F 100% 29.91 in 4.0 mi Calm Calm - N/A   Overcast
3:42 AM 64.4 °F 64.4 °F 100% 29.90 in 5.0 mi Calm Calm - N/A   Overcast
3:53 AM 66.0 °F 64.9 °F 96% 29.89 in 5.0 mi Calm Calm - N/A   Overcast
4:14 AM 64.4 °F 64.4 °F 100% 29.91 in 4.0 mi Calm Calm - N/A   Overcast
4:17 AM 64.4 °F 64.4 °F 100% 29.91 in 1.8 mi Calm Calm - N/A   Overcast
4:26 AM 64.4 °F 64.4 °F 100% 29.92 in 0.5 mi Calm Calm - N/A Fog Fog
4:59 AM 66.2 °F 66.2 °F 100% 29.93 in 2.5 mi SSW 5.8 mph - 0.01 in Rain Light Rain
5:01 AM 66.2 °F 66.2 °F 100% 29.93 in 3.0 mi SSW 4.6 mph - 0.01 in Rain Light Rain
5:11 AM 64.4 °F 64.4 °F 100% 29.94 in 5.0 mi WSW 6.9 mph - 0.02 in Rain Light Rain
5:53 AM 63.0 °F 62.1 °F 97% 29.93 in 6.0 mi SSW 5.8 mph - 0.13 in Rain Light Rain
6:53 AM 63.0 °F 62.1 °F 97% 29.94 in 10.0 mi South 5.8 mph - 0.03 in   Overcast
7:53 AM 63.0 °F 62.1 °F 97% 29.94 in 9.0 mi SSE 3.5 mph - 0.00 in   Overcast
8:53 AM 64.0 °F 63.0 °F 96% 29.96 in 6.0 mi South 4.6 mph - 0.01 in Rain Light Rain
9:53 AM 66.0 °F 63.0 °F 90% 29.95 in 10.0 mi Calm Calm - 0.00 in   Overcast
10:53 AM 69.1 °F 63.0 °F 81% 29.95 in 10.0 mi West 3.5 mph - N/A   Overcast
11:53 AM 71.1 °F 62.1 °F 73% 29.95 in 10.0 mi Calm Calm - N/A   Overcast
12:53 PM 71.1 °F 64.0 °F 78% 29.94 in 10.0 mi Calm Calm - 0.00 in Rain Light Rain
1:53 PM 73.0 °F 64.9 °F 76% 29.91 in 10.0 mi South 5.8 mph - 0.00 in   Scattered Clouds
2:53 PM 77.0 °F 64.0 °F 64% 29.88 in 10.0 mi SSE 11.5 mph - N/A   Clear
3:53 PM 77.0 °F 64.9 °F 66% 29.86 in 10.0 mi SSW 6.9 mph - N/A   Partly Cloudy
4:53 PM 77.0 °F 64.9 °F 66% 29.84 in 10.0 mi SW 5.8 mph - N/A   Scattered Clouds
5:53 PM 75.9 °F 66.0 °F 71% 29.84 in 10.0 mi Calm Calm - N/A   Mostly Cloudy
6:13 PM 75.2 °F 68.0 °F 78% 29.85 in 10.0 mi Calm Calm - N/A Thunderstorm Scattered Clouds
6:39 PM 75.2 °F 66.2 °F 73% 29.86 in 10.0 mi Calm Calm - N/A   Partly Cloudy
6:53 PM 73.9 °F 69.1 °F 85% 29.85 in 9.0 mi Calm Calm - N/A   Partly Cloudy
7:53 PM 72.0 °F 68.0 °F 87% 29.86 in 10.0 mi Calm Calm - N/A   Mostly Cloudy
8:53 PM 70.0 °F 68.0 °F 93% 29.86 in 10.0 mi Calm Calm - N/A   Clear
9:53 PM 68.0 °F 64.9 °F 90% 29.88 in 10.0 mi South 4.6 mph - N/A   Clear
10:53 PM 66.9 °F 64.0 °F 90% 29.89 in 10.0 mi Calm Calm - N/A   Mostly Cloudy
11:53 PM 66.0 °F 63.0 °F 90% 29.89 in 10.0 mi Calm Calm - N/A   Partly Cloudy